MET995 - Kuala Lumpur International Airport to Hong Kong

Airbus A330-243
787MT
3 hrs 30 mins
1375 nm
Scheduled - M | TU | TH

Bid/PiRep Status

Bid was submitted on January 2nd, 2017 16:27 UTC.
PiRep # 74582: Approved by Dave Nichols on January 3rd, 2017 5:15 UTC

Departure

Departing from
Kuala Lumpur International Airport (KUL)
Departure gate
Ramp
Scheduled Departure
GMT 1145
Local 1945
METAR WMKK 182300Z VRB02KT 4000 HZ FEW010 FEW017CB SCT140 BKN280 25/24 Q1008 BECMG 8000 NSW
TAF TAF WMKK 181700Z 1818/2000 06005KT 9000 FEW017CB SCT140 PROB30 TEMPO 1818/1822 4000 TSRA FEW016CB SCT018 TEMPO 1907/1911 4000 TSRA FEW008 FEW015CB SCT018
  • No charts available

Arrival

Arriving at
Hong Kong (HKG)
Arrival gate
Ramp
Scheduled Arrival
GMT 1515
Local 2315
METAR VHHH 182300Z 08005KT 050V110 8000 -RA FEW028 SCT045 19/16 Q1018 NOSIG
TAF TAF VHHH 181700Z 1818/1924 08010KT 8000 FEW020 SCT040 TX22/1906Z TN18/1823Z TN18/1923Z TEMPO 1818/1824 4000 BR -RA

Route Map

Planning Resources

PIBOS.A M763 ENREP L642 EPDOS ACORN DUMOL1A
VKL G334 VPT RAXIM M771 CH
ISTANA ISTAN G584 PK L629 DOLOX M771 DUMOL DUMOL1B
VKR R208 IGARI M765 DAGAG M771 DULOP CARSO V551 BETTY BETY2A
Route:
OFP Layout:
Units:
Detailed Navlog:
ETOPS Planning:
Plan Stepclimbs:
Runway Analysis:
Include NOTAMS:
FIR NOTAMS:
Flight Maps:

Return Flights

MET994
Airbus A330-243
0715 GMT

Popularity

Hub Current Bids PiReps this month Total PiReps
KLAX 0 0 2
KBOS 0 0 0
KDFW 0 0 0